Temperature
9 9 9 8 8 7 7 6 6 5 5 5 5 5 4 4 4 3 3 2 1 1 1 0 -0 -1 -2 -2 -3 -3 -4 -4 -5 -5 -4 -4 -4 -4 -4 -4 -4 -4 -3
9 8 8 7 7 7 6 6 5 5 5 4 4 4 4 3 3 2 2 1 1 0 -0 -1 -1 -2 -2 -3 -3 -4 -4 -5 -5 -5 -5 -5 -5 -4 -4 -4 -4 -4 -4
8 8 7 7 6 6 6 5 5 4 4 4 4 3 3 2 2 1 1 0 -0 -1 -1 -2 -2 -3 -3 -3 -4 -4 -5 -5 -5 -5 -5 -5 -5 -5 -4 -4 -4 -4 -4
8 7 7 6 6 5 5 5 4 4 4 3 3 2 2 2 1 1 0 -0 -1 -2 -2 -3 -3 -3 -4 -4 -5 -5 -5 -5 -5 -5 -5 -5 -5 -5 -5 -5 -5 -4 -4
7 7 6 6 5 5 4 4 4 3 3 2 2 2 1 1 0 -0 -1 -2 -2 -2 -3 -3 -3 -4 -4 -5 -5 -5 -5 -5 -5 -5 -5 -5 -5 -5 -5 -5 -5 -5 -5
6 6 5 5 5 4 4 3 3 3 2 2 1 1 1 0 -0 -1 -2 -2 -3 -3 -3 -4 -4 -4 -5 -5 -5 -5 -5 -5 -5 -5 -5 -5 -5 -5 -5 -5 -5 -5 -5
6 5 5 4 4 4 3 3 3 2 2 1 1 0 0 -0 -1 -1 -2 -3 -3 -3 -4 -4 -5 -5 -5 -5 -5 -5 -5 -5 -5 -5 -5 -5 -5 -5 -5 -5 -5 -5 -5
5 5 4 4 4 3 3 2 2 1 1 1 0 -0 -0 -1 -1 -2 -3 -3 -4 -4 -4 -5 -5 -5 -5 -6 -6 -6 -6 -5 -5 -5 -5 -5 -5 -5 -5 -5 -4 -4 -4
5 4 4 3 3 3 2 2 1 1 0 0 -0 -1 -1 -1 -2 -2 -3 -4 -4 -5 -5 -5 -6 -6 -6 -6 -6 -6 -6 -6 -5 -5 -5 -5 -5 -5 -5 -5 -5 -5 -5
4 4 3 3 2 2 2 1 1 0 -0 -1 -1 -1 -2 -2 -2 -3 -4 -5 -5 -5 -5 -6 -6 -6 -6 -6 -6 -6 -6 -6 -6 -6 -5 -5 -5 -5 -5 -5 -5 -5 -5
4 3 3 2 2 1 1 0 0 -0 -1 -1 -1 -1 -2 -2 -3 -4 -5 -5 -6 -6 -6 -6 -6 -6 -6 -6 -6 -6 -6 -6 -6 -6 -6 -6 -6 -6 -5 -5 -6 -6 -6
3 3 2 2 1 1 0 -0 -0 -1 -1 -1 -2 -2 -2 -3 -4 -4 -5 -6 -6 -6 -6 -6 -6 -6 -6 -6 -6 -6 -6 -6 -6 -6 -6 -6 -6 -6 -6 -6 -6 -6 -6
2 2 2 1 1 0 -0 -1 -1 -1 -2 -2 -3 -3 -3 -4 -4 -5 -6 -6 -6 -6 -7 -7 -7 -7 -7 -7 -7 -7 -7 -7 -7 -7 -7 -7 -6 -6 -6 -6 -6 -6 -6
2 2 1 1 0 -0 -1 -1 -2 -2 -3 -3 -4 -5 -5 -5 -5 -6 -6 -6 -6 -7 -7 -7 -7 -7 -7 -7 -7 -7 -7 -7 -7 -7 -7 -7 -7 -7 -7 -7 -7 -7 -7
1 1 0 -0 -1 -1 -1 -2 -2 -3 -4 -5 -5 -6 -6 -6 -6 -6 -6 -7 -7 -7 -7 -7 -7 -7 -8 -8 -8 -8 -8 -8 -8 -8 -8 -8 -7 -7 -7 -7 -7 -7 -7
0 0 -0 -1 -1 -2 -2 -2 -3 -4 -4 -5 -6 -6 -6 -7 -7 -7 -7 -7 -7 -7 -7 -8 -8 -8 -8 -8 -8 -8 -8 -8 -8 -8 -8 -8 -8 -8 -8 -8 -7 -7 -7
-0 -1 -1 -2 -2 -3 -3 -4 -4 -4 -5 -6 -6 -6 -7 -7 -7 -7 -8 -8 -8 -8 -8 -9 -9 -9 -9 -9 -9 -9 -9 -8 -8 -8 -8 -8 -8 -8 -8 -8 -8 -8 -7
-1 -2 -2 -3 -3 -4 -4 -5 -6 -6 -6 -6 -6 -7 -7 -8 -8 -8 -8 -8 -8 -9 -9 -9 -9 -9 -9 -9 -9 -9 -9 -9 -9 -9 -9 -9 -9 -9 -8 -8 -8 -8 -8
-2 -2 -3 -3 -4 -5 -5 -6 -6 -7 -7 -7 -7 -7 -8 -8 -8 -8 -9 -9 -9 -10 -10 -10 -10 -10 -10 -9 -9 -9 -9 -9 -9 -9 -9 -9 -9 -9 -9 -8 -8 -8 -8
-3 -3 -4 -5 -5 -6 -6 -7 -7 -7 -8 -8 -8 -8 -8 -9 -9 -9 -9 -9 -10 -10 -10 -10 -10 -10 -10 -10 -10 -9 -9 -9 -9 -9 -9 -9 -9 -9 -9 -9 -9 -9 -8
-4 -4 -5 -6 -6 -7 -7 -7 -8 -8 -8 -8 -8 -9 -9 -9 -9 -9 -10 -10 -10 -10 -10 -10 -10 -10 -10 -10 -10 -10 -10 -9 -9 -9 -9 -9 -9 -9 -9 -9 -9 -9 -9
-5 -5 -6 -6 -7 -7 -8 -8 -8 -8 -9 -9 -9 -9 -9 -10 -10 -10 -10 -11 -11 -11 -11 -11 -11 -10 -10 -10 -10 -10 -10 -10 -9 -9 -9 -9 -9 -9 -9 -9 -9 -9 -9
-6 -6 -7 -7 -8 -8 -8 -8 -9 -9 -9 -10 -10 -10 -10 -10 -11 -11 -11 -11 -11 -11 -11 -11 -11 -11 -10 -10 -10 -10 -10 -10 -10 -9 -9 -9 -9 -9 -9 -9 -9 -9 -9
-7 -7 -8 -8 -8 -9 -9 -9 -10 -10 -10 -10 -10 -11 -11 -11 -11 -11 -11 -11 -11 -11 -11 -11 -11 -11 -11 -10 -10 -10 -10 -10 -10 -10 -10 -10 -10 -10 -10 -9 -9 -9 -9
-8 -8 -8 -9 -9 -10 -10 -10 -10 -11 -11 -11 -11 -11 -11 -12 -12 -12 -12 -12 -12 -12 -11 -11 -11 -11 -11 -10 -10 -10 -10 -10 -10 -10 -10 -10 -10 -10 -10 -10 -10 -10 -10
-9 -9 -9 -10 -10 -10 -11 -11 -11 -11 -11 -11 -12 -12 -12 -12 -12 -12 -12 -12 -12 -12 -12 -11 -11 -11 -11 -10 -10 -10 -10 -10 -10 -10 -10 -10 -10 -10 -10 -10 -10 -10 -10
Wind_Speed
7 5 5 4 3 2 1 2 3 3 3 5 6 6 7 8 7 7 8 8 9 9 9 9 9 9 7 7 7 7 8 9 17 16 8 8 9 11 13 17 20 19 20
6 6 5 3 2 1 2 3 3 4 4 5 6 7 8 8 8 8 9 9 9 10 10 10 11 10 9 8 8 9 9 10 13 20 14 9 10 10 12 12 13 16 14
6 6 4 3 2 3 4 4 5 5 6 6 6 8 8 9 9 9 9 10 10 10 11 11 11 10 11 10 9 10 10 12 11 15 17 12 9 9 10 11 13 11 14
6 6 4 4 4 5 5 5 6 6 7 8 8 8 9 9 9 10 10 10 10 11 11 11 11 11 12 11 11 11 11 12 12 14 15 13 10 9 8 9 10 8 10
6 5 5 5 4 5 5 6 7 7 8 8 9 9 9 9 9 10 9 10 10 10 10 10 11 14 18 16 14 11 10 11 12 13 14 14 11 8 9 8 12 10 10
6 5 4 4 5 6 7 7 7 8 8 8 9 10 10 10 17 21 17 10 9 9 10 10 11 14 18 23 26 26 22 16 13 14 14 15 14 12 10 10 12 13 11
5 4 4 5 5 7 7 7 8 8 8 9 10 10 11 13 21 23 23 14 10 9 10 10 11 12 19 11 19 24 23 26 26 19 18 17 16 14 13 15 14 14 14
4 4 4 5 6 7 7 8 9 8 8 9 10 11 11 13 22 23 24 14 9 10 10 11 12 12 13 15 14 13 13 15 19 16 14 16 16 16 15 16 16 14 13
4 5 5 6 7 7 8 9 8 8 9 9 9 10 11 13 21 23 24 10 9 10 10 11 12 12 21 26 18 14 15 14 19 24 25 24 26 27 21 12 10 11 12
5 6 6 6 7 8 9 9 8 8 9 9 10 9 11 12 19 22 23 9 9 10 9 10 18 20 25 27 17 14 17 14 13 15 16 18 16 17 21 12 9 11 10
5 5 6 6 7 8 8 7 8 8 9 9 10 10 10 13 17 21 22 11 9 10 9 8 9 23 27 28 24 15 19 19 12 11 11 11 9 8 9 8 8 9 10
5 6 7 7 7 6 7 8 8 8 9 10 10 11 8 10 15 18 23 23 21 13 11 9 12 25 27 27 21 20 26 21 9 9 9 9 8 8 7 7 8 9 9
5 6 7 7 7 7 7 9 8 8 8 9 9 11 10 7 10 21 24 24 25 16 12 20 25 27 25 17 20 24 19 9 8 9 9 8 7 7 7 6 7 7 8
6 7 7 7 8 7 6 7 7 8 8 9 10 11 11 9 8 8 9 12 17 15 13 17 23 21 17 17 17 13 8 8 9 9 8 8 7 6 6 6 6 5 6
7 7 7 7 7 8 7 7 9 8 10 12 10 10 11 12 14 22 19 12 11 12 15 10 6 7 7 8 8 8 7 7 8 7 8 7 7 6 6 5 5 5 5
7 7 6 6 7 7 8 10 14 15 21 22 21 20 16 20 26 27 27 27 27 25 17 8 9 9 10 9 9 9 7 7 7 7 7 7 7 7 6 5 5 5 6
7 8 6 6 7 8 8 9 12 14 18 20 21 23 22 25 26 27 27 27 25 22 10 8 10 10 10 10 9 9 9 8 7 7 7 7 7 7 6 6 6 5 5
8 9 9 7 7 8 8 9 10 12 14 11 14 20 23 24 25 26 26 22 13 11 7 9 10 10 10 10 9 9 8 7 7 7 7 7 6 6 6 6 6 6 5
8 7 7 7 7 8 9 9 10 11 12 13 11 12 19 21 23 22 20 9 10 10 9 10 10 10 10 10 10 9 8 8 8 7 7 7 6 6 6 6 6 9 7
7 13 12 8 7 8 8 10 11 11 12 12 12 11 10 13 10 10 8 7 9 10 10 10 10 10 10 10 9 9 8 8 8 7 7 6 6 6 6 7 6 6 5
7 10 15 11 8 9 10 10 11 11 12 12 12 14 20 13 10 10 10 9 9 10 11 11 10 10 10 9 9 9 10 8 7 7 7 6 6 6 6 6 6 6 5
7 8 8 9 9 9 11 10 10 11 12 13 12 13 20 12 9 10 10 10 9 9 10 10 10 10 9 9 9 9 9 9 8 7 7 7 6 7 6 6 6 5 5
8 9 9 9 9 14 14 9 10 11 12 12 12 12 11 9 10 10 11 10 9 9 9 9 11 10 9 9 9 9 10 9 8 7 8 8 7 7 7 7 7 7 7
8 9 10 10 10 10 10 11 11 11 12 12 11 11 10 10 10 12 11 10 10 10 10 10 11 13 14 12 10 8 8 10 9 9 10 10 9 8 8 8 8 8 8
8 9 10 10 10 10 11 12 12 11 12 12 12 11 10 10 11 11 11 10 11 12 12 11 10 11 13 14 13 12 16 19 18 12 9 9 10 10 10 10 9 9 9
8 9 9 9 9 10 11 11 12 11 11 12 11 10 10 11 11 11 11 11 11 11 12 11 12 13 15 14 15 18 21 20 19 19 11 8 9 9 9 9 10 10 10
Wind_Direction
164 159 154 163 167 166 204 260 274 281 291 295 295 296 296 294 292 289 284 283 280 280 279 276 272 270 266 262 257 257 259 265 285 293 284 274 267 270 278 278 279 280 281
166 160 165 171 173 201 254 269 272 279 281 282 287 291 291 291 290 287 286 287 282 281 280 279 277 278 269 266 263 262 266 265 276 289 293 285 272 270 272 272 280 280 276
163 163 170 187 208 238 257 268 273 276 283 285 285 286 286 287 286 284 280 280 277 275 275 274 275 274 275 272 267 268 270 275 272 280 288 287 280 274 275 276 274 274 276
165 169 187 212 227 242 255 265 270 272 278 281 281 279 280 281 281 281 279 276 273 271 269 268 268 266 269 273 275 270 271 273 274 278 285 288 284 271 268 276 281 269 270
168 183 210 227 238 250 261 268 272 274 274 275 279 281 281 282 277 277 274 269 268 270 269 265 265 273 279 284 286 280 277 278 282 284 286 288 286 281 275 272 280 279 271
175 201 223 238 251 259 265 270 274 276 276 276 276 277 280 284 295 303 303 289 278 274 276 272 272 279 286 292 294 295 292 288 286 284 286 284 285 281 278 277 281 283 283
185 212 232 244 258 265 270 274 275 276 275 277 277 276 276 281 296 303 305 304 288 278 276 277 284 285 294 284 288 290 288 287 286 284 282 282 282 280 279 279 276 274 274
197 228 244 251 262 271 275 275 275 273 274 276 278 278 278 285 300 306 308 304 285 276 272 273 277 278 278 286 280 277 273 275 277 278 271 271 272 273 267 268 273 275 272
219 241 251 254 263 272 275 276 277 278 278 277 277 278 280 288 301 307 307 294 284 277 273 272 278 278 286 295 295 288 285 281 284 284 283 283 283 285 285 282 278 280 281
236 248 256 257 261 268 272 276 277 277 279 283 283 280 279 282 296 305 307 293 287 284 277 272 284 290 294 297 294 289 290 289 284 285 285 285 284 283 285 278 275 278 280
247 259 265 266 266 269 273 275 281 283 286 287 288 285 279 283 297 303 306 302 289 288 287 281 277 294 297 298 298 293 291 295 289 287 286 282 278 271 268 262 256 262 271
260 268 272 274 276 280 278 282 283 286 290 292 293 293 283 282 293 300 305 305 304 299 293 286 286 296 299 302 304 299 300 304 299 292 287 284 280 277 273 268 261 256 256
270 273 276 279 277 276 278 285 290 288 288 294 294 296 295 283 286 300 305 305 304 302 292 296 300 303 306 305 300 301 303 300 292 288 286 283 277 276 278 276 270 266 264
272 277 279 281 284 283 279 278 283 285 287 291 292 295 296 294 285 283 283 293 299 299 295 295 300 302 302 299 299 298 289 280 286 286 287 286 285 282 281 280 281 280 276
276 278 281 278 280 286 282 275 281 271 276 290 291 290 297 300 297 305 308 305 301 295 304 299 295 295 293 290 286 283 278 280 289 284 285 287 289 287 284 281 275 275 270
280 281 279 280 283 284 290 295 289 289 294 296 297 297 297 297 303 308 310 310 310 310 312 305 301 297 295 293 292 291 285 282 282 283 285 285 288 288 287 283 271 268 271
271 277 279 278 283 286 288 293 300 301 297 296 298 300 300 302 305 308 310 310 311 314 309 297 294 293 291 289 287 286 285 282 280 281 280 279 281 282 281 282 277 271 269
272 279 283 275 277 281 283 284 288 295 302 299 296 298 301 303 306 308 309 312 308 307 288 289 289 290 288 287 287 285 282 282 281 278 276 275 274 277 278 276 275 267 265
276 275 276 273 273 277 281 284 286 288 291 295 296 297 300 304 305 304 308 300 296 296 293 290 287 287 286 285 284 283 280 281 279 277 275 272 270 270 272 270 271 277 274
275 285 293 287 281 284 284 286 289 289 291 292 293 295 300 300 297 298 297 287 289 290 291 290 289 285 285 284 282 280 279 277 276 273 271 269 268 266 266 268 266 264 258
275 284 293 292 282 284 285 285 286 288 291 292 291 294 301 304 301 298 296 291 287 289 290 290 288 287 285 282 279 276 274 274 272 270 268 265 263 265 263 262 264 258 252
275 277 277 278 282 283 285 285 288 291 292 292 294 297 303 302 293 292 292 290 285 285 286 287 288 285 282 280 279 278 276 273 270 266 265 264 260 260 259 259 261 256 249
275 280 283 283 283 290 295 291 290 290 291 292 294 296 297 294 293 293 292 292 290 289 287 285 288 286 281 279 276 275 276 274 270 266 266 267 263 259 256 255 256 255 250
276 281 286 290 291 291 292 293 292 291 292 293 294 294 294 294 293 294 294 294 292 291 288 287 286 285 284 284 282 276 271 271 268 263 257 257 258 257 253 252 251 248 247
282 285 289 291 292 293 293 293 293 292 292 295 296 296 295 295 295 295 295 293 291 291 289 289 288 287 285 283 283 281 282 283 282 274 259 254 252 250 250 250 249 248 244
286 288 290 290 289 289 290 292 292 292 292 294 294 292 292 293 293 293 293 292 292 293 292 291 285 284 285 286 284 286 289 288 285 281 273 260 255 254 250 249 246 246 245
Height
1527 1527 1528 1527 1527 1526 1525 1524 1523 1521 1519 1517 1514 1511 1508 1504 1501 1497 1493 1489 1485 1481 1478 1474 1470 1467 1463 1459 1455 1451 1447 1442 1431 1420 1420 1419 1417 1414 1412 1410 1407 1403 1401
1524 1525 1525 1524 1524 1523 1522 1521 1519 1517 1515 1512 1509 1505 1502 1498 1494 1490 1486 1482 1478 1474 1470 1466 1462 1458 1454 1451 1446 1442 1438 1434 1427 1416 1410 1410 1408 1406 1403 1400 1398 1395 1392
1521 1521 1521 1521 1520 1520 1519 1517 1515 1512 1510 1507 1503 1500 1496 1492 1488 1483 1479 1474 1470 1466 1462 1458 1454 1450 1445 1441 1437 1433 1429 1425 1420 1413 1404 1402 1400 1398 1395 1392 1390 1387 1384
1517 1518 1518 1518 1517 1516 1514 1513 1510 1508 1505 1501 1497 1494 1489 1485 1481 1476 1471 1467 1462 1458 1455 1451 1446 1442 1437 1433 1428 1424 1420 1416 1412 1406 1400 1395 1392 1390 1388 1384 1381 1378 1376
1513 1514 1514 1514 1513 1511 1510 1508 1505 1502 1499 1495 1491 1487 1483 1478 1473 1468 1463 1459 1454 1450 1446 1442 1438 1434 1429 1426 1422 1417 1413 1409 1404 1399 1393 1389 1385 1383 1381 1378 1374 1370 1367
1510 1510 1510 1509 1508 1506 1505 1502 1499 1496 1492 1489 1484 1480 1475 1471 1466 1462 1457 1451 1447 1442 1437 1433 1429 1425 1421 1417 1413 1410 1406 1402 1396 1392 1386 1382 1378 1376 1373 1370 1367 1363 1359
1506 1506 1506 1505 1503 1501 1499 1496 1493 1489 1485 1481 1477 1473 1468 1463 1459 1454 1449 1444 1439 1434 1429 1424 1420 1416 1412 1407 1402 1398 1395 1393 1389 1385 1379 1374 1371 1368 1365 1362 1359 1355 1352
1502 1502 1501 1499 1498 1495 1493 1490 1486 1482 1478 1473 1469 1464 1459 1455 1451 1446 1440 1435 1429 1425 1421 1416 1411 1406 1402 1398 1393 1388 1384 1381 1379 1375 1370 1365 1362 1359 1357 1353 1350 1346 1343
1497 1497 1496 1494 1492 1489 1486 1483 1479 1474 1470 1465 1461 1456 1451 1446 1442 1437 1431 1425 1420 1415 1411 1407 1403 1398 1394 1390 1386 1380 1375 1371 1369 1365 1362 1358 1354 1352 1349 1345 1342 1339 1335
1493 1492 1490 1488 1486 1483 1479 1475 1471 1467 1462 1457 1452 1448 1443 1437 1433 1428 1423 1417 1411 1406 1402 1398 1395 1390 1386 1382 1377 1372 1366 1361 1358 1354 1351 1347 1345 1342 1340 1338 1335 1332 1328
1488 1487 1485 1483 1480 1476 1472 1468 1464 1459 1453 1448 1443 1439 1434 1429 1424 1419 1415 1410 1404 1398 1393 1389 1385 1381 1377 1373 1369 1364 1358 1354 1350 1345 1341 1338 1335 1333 1331 1329 1327 1325 1322
1483 1481 1479 1476 1473 1469 1465 1460 1456 1451 1445 1439 1434 1428 1424 1420 1416 1411 1406 1403 1398 1392 1385 1380 1376 1372 1368 1364 1360 1355 1351 1347 1342 1337 1334 1330 1328 1326 1323 1321 1319 1317 1315
1477 1475 1472 1469 1466 1462 1457 1452 1447 1443 1437 1431 1425 1419 1414 1410 1407 1403 1398 1393 1389 1384 1378 1373 1368 1364 1359 1354 1350 1346 1343 1338 1334 1330 1327 1324 1322 1320 1317 1315 1312 1310 1308
1471 1468 1465 1461 1458 1454 1450 1445 1440 1434 1429 1423 1418 1412 1406 1401 1397 1393 1389 1384 1380 1375 1369 1364 1359 1355 1351 1346 1342 1338 1335 1331 1328 1325 1321 1318 1316 1314 1311 1309 1307 1305 1303
1464 1461 1458 1454 1450 1445 1441 1437 1432 1427 1423 1417 1411 1406 1400 1394 1390 1387 1383 1377 1372 1367 1361 1356 1351 1346 1342 1338 1334 1331 1328 1325 1322 1319 1316 1313 1310 1308 1306 1304 1302 1300 1299
1457 1454 1450 1446 1441 1437 1432 1426 1422 1419 1414 1409 1405 1400 1394 1389 1383 1379 1374 1370 1364 1360 1354 1348 1343 1339 1335 1331 1327 1324 1321 1319 1316 1313 1310 1308 1305 1302 1300 1299 1297 1296 1294
1450 1446 1442 1438 1433 1429 1424 1418 1411 1407 1404 1400 1396 1391 1386 1381 1376 1371 1366 1361 1356 1352 1346 1341 1336 1332 1328 1325 1321 1318 1315 1312 1310 1307 1305 1302 1300 1297 1295 1294 1292 1291 1290
1443 1439 1435 1430 1425 1421 1416 1410 1405 1398 1392 1387 1385 1382 1378 1373 1368 1363 1358 1353 1347 1343 1339 1334 1330 1326 1322 1319 1315 1312 1309 1306 1304 1301 1299 1297 1294 1292 1290 1289 1288 1286 1285
1435 1431 1426 1422 1417 1412 1408 1402 1397 1392 1386 1380 1375 1371 1369 1364 1359 1355 1350 1345 1340 1335 1331 1327 1323 1319 1316 1312 1309 1306 1303 1300 1297 1295 1293 1291 1289 1287 1285 1284 1283 1281 1280
1427 1423 1418 1413 1408 1404 1399 1394 1389 1384 1379 1373 1368 1363 1359 1355 1349 1345 1342 1337 1333 1328 1324 1320 1316 1312 1309 1305 1302 1299 1296 1294 1291 1289 1287 1285 1284 1282 1280 1279 1277 1276 1275
1418 1414 1410 1405 1400 1396 1391 1386 1381 1376 1371 1366 1361 1357 1353 1348 1343 1338 1334 1329 1325 1321 1317 1313 1309 1305 1302 1298 1295 1292 1290 1287 1285 1283 1281 1279 1278 1276 1275 1273 1272 1271 1270
1410 1405 1400 1396 1391 1387 1382 1378 1373 1368 1363 1358 1352 1348 1345 1340 1335 1330 1326 1321 1317 1314 1310 1305 1301 1297 1294 1291 1289 1286 1283 1280 1278 1276 1274 1273 1271 1270 1269 1267 1266 1265 1264
1401 1396 1392 1387 1383 1378 1374 1369 1365 1359 1354 1349 1345 1340 1336 1331 1327 1322 1318 1314 1310 1305 1301 1298 1294 1290 1287 1284 1282 1279 1276 1273 1271 1270 1268 1266 1264 1263 1262 1261 1260 1259 1258
1393 1388 1384 1379 1374 1370 1365 1360 1355 1351 1346 1341 1336 1332 1328 1323 1319 1314 1310 1306 1301 1297 1293 1290 1286 1283 1280 1277 1274 1271 1269 1266 1264 1262 1261 1259 1258 1256 1255 1254 1253 1252 1252
1385 1380 1375 1370 1366 1361 1356 1351 1346 1342 1337 1333 1328 1324 1320 1315 1311 1306 1302 1298 1293 1289 1286 1282 1279 1275 1272 1269 1266 1264 1261 1259 1257 1256 1254 1252 1251 1249 1248 1247 1246 1245 1244
1375 1371 1366 1361 1356 1351 1346 1342 1337 1333 1329 1324 1320 1316 1312 1307 1302 1298 1294 1290 1286 1282 1278 1274 1271 1268 1265 1261 1259 1256 1254 1252 1250 1249 1247 1245 1243 1242 1241 1239 1238 1237 1236